User: anonymous   Login
Location: Lecco
(45.8566°N, 9.3977°E)
Time: 13:51:32
(UTC+02:00)
Language:

Transit 4A - Orbit

View from above orbital plane
View from above orbital plane
View from above satellite
View from above satellite

Ground track
Ground track

The orbit data is extracted from the following two-line orbital elements,

1   116U 61015A   21138.27128820 -.00000048  00000-0  21978-4 0  9990
2   116  66.8085 109.6971 0070618 138.2386 222.4114 13.91789196 38909
Epoch (UTC): 18 May 2021 06:30:39
Eccentricity: 0.0070618
inclination: 66.8085°
perigee height: 871 km
apogee height: 974 km
right ascension of ascending node: 109.6971°
argument of perigee: 138.2386°
revolutions per day: 13.91789196
mean anomaly at epoch: 222.4114°
orbit number at epoch: 3890

The dashed part of the orbit path shows where the satellite is in the earth's shadow,  

DLR